Stornoway, United Kingdom

9:53 PM GMT on November 20, 2018 (GMT +0000)
Stornoway

Weather History for EGPO - September, 2018

Change the Weather History Date:

Friday, September 14, 2018

  Actual Average Record
Temperature  
Mean Temperature 49 °F -  
Max Temperature 56 °F 55 °F 64 °F (2003)
Min Temperature 42 °F 46 °F 39 °F (2007)
Degree Days  
Heating Degree Days 16    
Moisture  
Dew Point 45 °F    
Average Humidity 82    
Maximum Humidity 100    
Minimum Humidity 50    
Precipitation  
Precipitation 0.01 in 0.17 in - ()
Sea Level Pressure  
Sea Level Pressure 29.78 in    
Wind  
Wind Speed 11 mph ()    
Max Wind Speed 21 mph    
Max Gust Speed 34 mph    
Visibility 6.6 miles    
Events Rain    
Averages and records for this station are not official NWS values.
T = Trace of Precipitation, MM = Missing Value Source: Averaged Metar Reports

Daily Weather History Graph

Daily Weather History Graph

Search for Another Location

Airport or City:

Astronomy

Sep. 14, 2018 Rise Set
Actual Time 6:52 AM BST 7:47 PM BST
Civil Twilight 6:12 AM BST 8:27 PM BST
Nautical Twilight 5:22 AM BST 9:16 PM BST
Astronomical Twilight 4:27 AM BST 10:11 PM BST
Moon 12:55 PM BST (9/14) 9:53 PM BST (9/14)
Length of Visible Light 14h 15m
Length of Day
12h 55m
Waxing Crescent, 26% of the Moon is Illuminated
Sep 14
Waxing Crescent
Sep 17
First Quarter
Sep 25
Full
Oct 2
Last Quarter
Oct 9
New

Hourly Weather History & Observations

Time (BST) Temp. Windchill Dew Point Humidity Pressure Visibility Wind Dir Wind Speed Gust Speed Precip Events Conditions
12:00 AM 50 °F - 48 °F 89% 29.77 in 6 mi SW 10.4 mph - - Rain Rain
12:20 AM 50.0 °F - 48.2 °F 94% 29.74 in 4.3 mi SW 9.2 mph - N/A Rain Light Rain
12:50 AM 50.0 °F - 48.2 °F 94% 29.71 in 1.4 mi SW 13.8 mph - N/A Rain Heavy Rain
1:00 AM 50 °F - 48 °F 92% 29.75 in 2 mi SW 16.1 mph - - Rain Rain
1:20 AM 50.0 °F - 50.0 °F 100% 29.71 in 5.0 mi WSW 9.2 mph - N/A Rain Light Rain
1:50 AM 50.0 °F - 50.0 °F 100% 29.68 in 6.2 mi SW 6.9 mph - N/A   Overcast
2:00 AM 50 °F - 49 °F 95% 29.73 in 31 mi SW 9.2 mph - - Rain Rain
2:20 AM 50.0 °F - 50.0 °F 100% 29.68 in 6.2 mi WSW 10.4 mph - N/A Rain Light Rain
2:50 AM 50.0 °F - 50.0 °F 100% 29.68 in 6.2 mi WSW 13.8 mph - N/A   Mostly Cloudy
3:20 AM 51.8 °F - 48.2 °F 88% 29.68 in 6.2 mi WSW 15.0 mph - N/A   Unknown
3:50 AM 50.0 °F - 48.2 °F 94% 29.68 in 6.2 mi WSW 8.1 mph - N/A   Scattered Clouds
4:00 AM 50 °F - 48 °F 90% 29.70 in 19 mi WSW 11.5 mph - -   Partly Cloudy
4:20 AM 50.0 °F - 48.2 °F 94% 29.65 in 6.2 mi West 8.1 mph - N/A   Unknown
4:50 AM 50.0 °F - 46.4 °F 87% 29.65 in 6.2 mi WSW 11.5 mph - N/A   Unknown
5:00 AM 50 °F - 47 °F 84% 29.68 in 28 mi WSW 11.5 mph - -   Mostly Cloudy
5:20 AM 50.0 °F - 46.4 °F 87% 29.65 in 6.2 mi West 11.5 mph - N/A   Partly Cloudy
5:50 AM 48.2 °F - 46.4 °F 93% 29.68 in 5.0 mi West 8.1 mph - N/A Rain Light Rain Showers
6:00 AM 48 °F - 46 °F 90% 29.67 in 4 mi West 10.4 mph - - Rain Light Rain Showers
6:20 AM 46.4 °F 41.5 °F 44.6 °F 93% 29.68 in 6.2 mi West 10.4 mph - N/A Rain Light Rain Showers
6:50 AM 46.4 °F 41.9 °F 44.6 °F 93% 29.68 in 6.2 mi West 9.2 mph - N/A   Scattered Clouds
7:00 AM 46 °F - 44 °F 89% 29.68 in 31 mi West 11.5 mph - - Rain Rain
7:20 AM 44.6 °F 40.2 °F 44.6 °F 100% 29.68 in 6.2 mi WSW 8.1 mph - N/A   Scattered Clouds
7:50 AM 46.4 °F 42.9 °F 44.6 °F 93% 29.71 in 6.2 mi WSW 6.9 mph - N/A   Scattered Clouds
8:00 AM 46 °F - 44 °F 89% 29.70 in 28 mi WSW 9.2 mph - -   Partly Cloudy
8:20 AM 46.4 °F 43.5 °F 42.8 °F 87% 29.71 in 6.2 mi West 5.8 mph - N/A   Scattered Clouds
8:50 AM 46.4 °F 41.9 °F 44.6 °F 93% 29.74 in 6.2 mi West 9.2 mph - N/A   Scattered Clouds
9:20 AM 50.0 °F - 44.6 °F 82% 29.74 in 6.2 mi West 9.2 mph - N/A   Partly Cloudy
9:50 AM 50.0 °F - 46.4 °F 87% 29.74 in 6.2 mi West 11.5 mph - N/A   Partly Cloudy
10:00 AM 50 °F - 45 °F 76% 29.79 in 25 mi West 13.8 mph - -  
10:20 AM 51.8 °F - 44.6 °F 76% 29.74 in 6.2 mi West 15.0 mph - N/A   Partly Cloudy
10:50 AM 53.6 °F - 42.8 °F 67% 29.77 in 6.2 mi West 17.3 mph - N/A   Partly Cloudy
11:00 AM 53 °F - 43 °F 59% 29.82 in 17 mi West 18.4 mph - -   Scattered Clouds
11:20 AM 51.8 °F - 42.8 °F 71% 29.77 in 6.2 mi West 16.1 mph - N/A   Scattered Clouds
11:50 AM 51.8 °F - 44.6 °F 76% 29.77 in 6.2 mi West 11.5 mph - N/A   Scattered Clouds
12:20 PM 51.8 °F - 44.6 °F 76% 29.77 in 6.2 mi West 15.0 mph - N/A   Scattered Clouds
12:50 PM 55.4 °F - 44.6 °F 67% 29.77 in 6.2 mi WNW 18.4 mph - N/A   Scattered Clouds
1:00 PM 54 °F - 43 °F 58% 29.82 in 28 mi West 20.7 mph - -   Scattered Clouds
1:20 PM 55.4 °F - 44.6 °F 67% 29.77 in 6.2 mi West 17.3 mph - N/A   Scattered Clouds
1:50 PM 55.4 °F - 44.6 °F 67% 29.77 in 6.2 mi West 17.3 mph - N/A   Scattered Clouds
2:00 PM 56 °F - 43 °F 50% 29.86 in 18 mi West 19.6 mph - -   Scattered Clouds
2:20 PM 53.6 °F - 44.6 °F 72% 29.80 in 6.2 mi West 19.6 mph 34.5 mph N/A   Scattered Clouds
2:50 PM 55.4 °F - 46.4 °F 72% 29.80 in 6.2 mi West 18.4 mph - N/A   Scattered Clouds
3:00 PM 55 °F - 43 °F 54% 29.88 in 28 mi West 19.6 mph - -   Scattered Clouds
3:20 PM 53.6 °F - 44.6 °F 72% 29.80 in 6.2 mi West 16.1 mph - N/A   Partly Cloudy
3:50 PM 53.6 °F - 44.6 °F 72% 29.80 in 6.2 mi West 16.1 mph - N/A   Partly Cloudy
4:00 PM 54 °F - 44 °F 59% 29.87 in 25 mi West 17.3 mph - -   Scattered Clouds
4:20 PM 55.4 °F - 44.6 °F 67% 29.80 in 6.2 mi WNW 16.1 mph - N/A   Scattered Clouds
4:50 PM 53.6 °F - 44.6 °F 72% 29.83 in 6.2 mi WNW 18.4 mph - N/A   Scattered Clouds
5:00 PM 53 °F - 43 °F 60% 29.87 in 28 mi West 17.3 mph - -   Partly Cloudy
5:20 PM 53.6 °F - 44.6 °F 72% 29.83 in 6.2 mi WNW 12.7 mph - N/A   Partly Cloudy
5:50 PM 53.6 °F - 44.6 °F 72% 29.83 in 6.2 mi West 12.7 mph - N/A   Partly Cloudy
6:00 PM 54 °F - 44 °F 60% 29.91 in 31 mi West 13.8 mph - -   Mostly Cloudy
6:20 PM 53.6 °F - 44.6 °F 72% 29.86 in 6.2 mi West 11.5 mph - N/A   Scattered Clouds
6:50 PM 51.8 °F - 44.6 °F 76% 29.86 in 6.2 mi West 10.4 mph - N/A   Scattered Clouds
7:00 PM 52 °F - 44 °F 64% 29.88 in 28 mi West 13.8 mph - -   Partly Cloudy
7:20 PM 50.0 °F - 44.6 °F 82% 29.86 in 6.2 mi West 3.5 mph - N/A   Scattered Clouds
7:50 PM 48.2 °F - 44.6 °F 87% 29.86 in 6.2 mi West 5.8 mph - N/A   Partly Cloudy
8:00 PM 49 °F - 44 °F 77% 29.87 in 31 mi West 8.1 mph - -   Mostly Cloudy
8:20 PM 48.2 °F - 44.6 °F 87% 29.89 in 6.2 mi West 8.1 mph - N/A   Mostly Cloudy
8:50 PM 46.4 °F 43.5 °F 42.8 °F 87% 29.89 in 6.2 mi WSW 5.8 mph - N/A   Partly Cloudy
9:00 PM 46 °F - 43 °F 87% 29.88 in 28 mi SW 8.1 mph - - Rain Rain
9:20 PM 42.8 °F 40.1 °F 41.0 °F 93% 29.89 in 6.2 mi SW 4.6 mph - N/A   Partly Cloudy
9:50 PM 42.8 °F - 42.8 °F 100% 29.89 in 6.2 mi SW 2.3 mph - N/A   Scattered Clouds
10:00 PM 45 °F - 43 °F 88% 29.89 in 25 mi SW 8.1 mph - -   Partly Cloudy
10:20 PM 42.8 °F 38.6 °F 41.0 °F 93% 29.92 in 6.2 mi WSW 6.9 mph - N/A   Unknown
10:50 PM 42.8 °F 39.3 °F 41.0 °F 93% 29.92 in 6.2 mi WSW 5.8 mph - N/A   Unknown
11:00 PM 44 °F - 42 °F 91% 29.89 in 28 mi SW 8.1 mph - -  
11:20 PM 46.4 °F 42.4 °F 44.6 °F 93% 29.92 in 6.2 mi WSW 8.1 mph - N/A Rain Light Rain
11:50 PM 42.8 °F 37.5 °F 42.8 °F 100% 29.92 in 6.2 mi WSW 9.2 mph - N/A   Partly Cloudy